TimeEDT,TemperatureF,Dew PointF,Humidity,Sea Level PressureIn,VisibilityMPH,Wind Direction,Wind SpeedMPH,Gust SpeedMPH,PrecipitationIn,Events,Conditions,WindDirDegrees,DateUTC
12:53 AM,62.1,55.0,78,30.12,10.0,Calm,Calm,-,N/A,,Clear,0,2013-05-15 04:53:00
1:53 AM,57.9,55.0,90,30.12,10.0,Calm,Calm,-,N/A,,Clear,0,2013-05-15 05:53:00
2:53 AM,55.0,54.0,96,30.11,10.0,Calm,Calm,-,N/A,,Clear,0,2013-05-15 06:53:00
3:53 AM,53.1,53.1,100,30.12,10.0,Calm,Calm,-,N/A,,Clear,0,2013-05-15 07:53:00
4:53 AM,53.1,53.1,100,30.12,10.0,Calm,Calm,-,N/A,,Clear,0,2013-05-15 08:53:00
5:53 AM,52.0,52.0,100,30.13,8.0,Calm,Calm,-,N/A,,Clear,0,2013-05-15 09:53:00
6:53 AM,51.1,51.1,100,30.15,8.0,Calm,Calm,-,N/A,,Clear,0,2013-05-15 10:53:00
7:53 AM,57.0,55.0,93,30.16,10.0,Calm,Calm,-,N/A,,Clear,0,2013-05-15 11:53:00
8:53 AM,64.0,57.9,80,30.17,8.0,Calm,Calm,-,N/A,,Clear,0,2013-05-15 12:53:00
9:53 AM,70.0,57.0,63,30.18,10.0,Variable,3.5,-,N/A,,Clear,0,2013-05-15 13:53:00
10:53 AM,75.9,57.0,52,30.16,10.0,Variable,4.6,-,N/A,,Clear,0,2013-05-15 14:53:00
11:53 AM,79.0,57.0,47,30.15,10.0,Variable,4.6,-,N/A,,Clear,0,2013-05-15 15:53:00
12:53 PM,81.0,57.0,44,30.13,10.0,Calm,Calm,-,N/A,,Clear,0,2013-05-15 16:53:00
1:53 PM,82.0,57.0,42,30.11,10.0,Variable,3.5,-,N/A,,Clear,0,2013-05-15 17:53:00
2:53 PM,84.0,57.0,40,30.09,10.0,Variable,3.5,-,N/A,,Clear,0,2013-05-15 18:53:00
3:53 PM,82.9,55.9,39,30.06,10.0,Variable,5.8,-,N/A,,Clear,0,2013-05-15 19:53:00
4:53 PM,84.0,55.0,37,30.04,10.0,Variable,3.5,-,N/A,,Clear,0,2013-05-15 20:53:00
5:53 PM,84.9,55.9,37,30.02,10.0,Variable,3.5,-,N/A,,Clear,0,2013-05-15 21:53:00
6:53 PM,82.0,57.0,42,30.02,10.0,Calm,Calm,-,N/A,,Clear,0,2013-05-15 22:53:00
7:53 PM,77.0,60.1,56,30.01,10.0,Calm,Calm,-,N/A,,Clear,0,2013-05-15 23:53:00
8:53 PM,66.9,61.0,81,30.02,10.0,Calm,Calm,-,N/A,,Clear,0,2013-05-16 00:53:00
9:53 PM,64.0,60.1,87,30.04,10.0,Calm,Calm,-,N/A,,Clear,0,2013-05-16 01:53:00
10:53 PM,61.0,59.0,93,30.04,10.0,Calm,Calm,-,N/A,,Clear,0,2013-05-16 02:53:00
11:53 PM,60.1,57.9,93,30.04,10.0,Calm,Calm,-,N/A,,Clear,0,2013-05-16 03:53:00